Weather reports worldwide

Advertisment
Bournemouth Airport, United Kingdom (3862): temperature & dewpoint: 22.02.2017 14:00:00 - 28.02.2017 14:00:00 (GMT)Bournemouth Airport, United Kingdom (3862): temperature -20cm & temperature -100cm: 22.02.2017 14:00:00 - 28.02.2017 14:00:00 (GMT)Bournemouth Airport, United Kingdom (3862): wind speed & gusts: 22.02.2017 14:00:00 - 28.02.2017 14:00:00 (GMT)Bournemouth Airport, United Kingdom (3862): wind direction: 22.02.2017 14:00:00 - 28.02.2017 14:00:00 (GMT)Bournemouth Airport, United Kingdom (3862): reduced air pressure: 22.02.2017 14:00:00 - 28.02.2017 14:00:00 (GMT)Bournemouth Airport, United Kingdom (3862): visibility: 22.02.2017 14:00:00 - 28.02.2017 14:00:00 (GMT)Bournemouth Airport, United Kingdom (3862): sunshine duration: 22.02.2017 14:00:00 - 28.02.2017 14:00:00 (GMT)Bournemouth Airport, United Kingdom (3862): precipitation: 22.02.2017 14:00:00 - 28.02.2017 14:00:00 (GMT)
Date & Time tt [°C] td [°C] tt -20cm [°C] tt -100cm [°C] ff [km/h] ff [kn] fx [km/h] fx [kn] dd ppp [hPa] vv [km] sd [min] rr [mm]
28.02.2017 14:00:00 8,0 1,8 - - 21 11 - - WSW 990,9 10 6 0,0
28.02.2017 13:00:00 7,4 1,9 - - 22 12 - - W 991,4 10 0 0,0
28.02.2017 12:00:00 6,5 0,6 - - 29 16 - - W 991,3 10 30 0,0
28.02.2017 11:00:00 6,7 1,2 - - 26 14 - - WNW 990,6 10 60 0,0
28.02.2017 10:00:00 5,4 2,6 - - 18 10 - - W 990,0 10 60 0,0
28.02.2017 09:00:00 2,6 2,4 8,0 8,0 8 4 - - W 989,2 10 24 0,0
28.02.2017 08:00:00 -0,2 -0,4 - - 4 2 - - SSW 988,5 10 0 0,0
28.02.2017 07:00:00 -1,4 -1,7 - - 0 0 - - N 987,7 20 0 0,0
28.02.2017 06:00:00 -1,4 -1,9 - - 8 4 - - W 987,0 21 0 0,0
28.02.2017 05:00:00 1,2 0,8 - - 4 2 - - SE 986,4 27 0 0,0
28.02.2017 04:00:00 1,0 0,3 - - 9 5 - - WNW 986,6 45 0 0,0
28.02.2017 03:00:00 1,5 0,5 - - 13 7 - - W 986,8 50 0 0,0
28.02.2017 02:00:00 2,2 0,8 - - 21 11 - - W 986,4 55 0 0,0
28.02.2017 01:00:00 2,7 1,4 - - 21 11 - - W 986,0 45 0 0,6
28.02.2017 00:00:00 4,2 2,4 - - 8 4 - - S 984,6 30 - 0,4
27.02.2017 23:00:00 3,9 2,1 - - 11 6 - - WSW 985,3 10 0 0,2
27.02.2017 22:00:00 2,7 1,7 - - 8 4 - - SW 985,8 30 0 0,0
27.02.2017 21:00:00 2,1 1,0 - - 9 5 - - W 986,3 10 0 0,0
27.02.2017 20:00:00 3,9 1,9 - - 21 11 - - W 986,3 10 0 0,2
27.02.2017 19:00:00 4,9 2,6 - - 15 8 - - WSW 986,1 10 0 0,0
27.02.2017 18:00:00 5,6 2,3 - - 21 11 - - WSW 985,8 30 0 0,4
27.02.2017 17:00:00 6,7 2,2 - - 18 10 - - WSW 985,9 10 24 0,0
27.02.2017 16:00:00 7,3 2,9 - - 29 16 52 28 WSW 985,8 10 48 0,0
27.02.2017 15:00:00 6,9 4,1 - - 31 17 57 31 WSW 985,8 10 12 0,2
27.02.2017 14:00:00 8,4 4,2 - - 37 20 57 31 WSW 986,0 30 6 0,0
27.02.2017 13:00:00 7,8 5,2 - - 24 13 - - SW 986,0 24 0 0,0
27.02.2017 12:00:00 6,8 5,3 - - 24 13 - - SSW 987,1 10 0 0,4
27.02.2017 11:00:00 7,9 5,8 - - 24 13 - - SSW 988,0 22 0 0,2
27.02.2017 10:00:00 7,9 5,9 - - 21 11 - - SSW 989,5 10 0 0,0
27.02.2017 09:00:00 7,4 6,1 8,7 8,0 16 9 - - SSW 990,6 10 0 0,8
27.02.2017 08:00:00 7,2 5,3 - - 29 16 48 26 WSW 992,4 8 0 0,6
27.02.2017 07:00:00 8,3 6,5 - - 18 10 - - SSW 993,1 10 0 0,6
27.02.2017 06:00:00 7,6 6,4 - - 28 15 - - SW 994,5 5 0 1,0
27.02.2017 05:00:00 8,5 7,3 - - 24 13 - - SW 995,6 6 0 0,0
27.02.2017 04:00:00 8,4 7,6 - - 16 9 - - SSW 996,7 17 0 0,0
27.02.2017 03:00:00 8,5 7,5 - - 15 8 - - SSW 998,0 20 0 0,0
27.02.2017 02:00:00 8,1 7,3 - - 21 11 - - SSW 999,2 13 0 2,6
27.02.2017 01:00:00 8,5 7,7 - - 16 9 - - SSW 999,7 6 0 3,6
27.02.2017 00:00:00 8,7 7,7 - - 16 9 - - SW 1000,8 15 - 0,8
26.02.2017 23:00:00 8,4 7,7 - - 15 8 - - SW 1001,8 10 0 0,6
26.02.2017 22:00:00 8,5 8,0 - - 18 10 - - W 1002,5 4,0 0 0,6
26.02.2017 21:00:00 9,9 9,3 - - 29 16 54 29 SW 1002,6 5 0 0,6
26.02.2017 20:00:00 10,0 9,3 - - 35 19 61 33 SW 1003,3 6 0 0,4
26.02.2017 19:00:00 10,0 9,1 - - 35 19 65 35 SW 1003,8 7 0 0,2
26.02.2017 18:00:00 9,9 8,7 - - 34 18 55 30 SW 1004,2 4,0 0 0,0
26.02.2017 17:00:00 10,3 8,0 - - 31 17 55 30 SSW 1004,5 10 0 0,0
26.02.2017 16:00:00 10,4 8,3 - - 31 17 59 32 SW 1005,4 18 0 0,0
26.02.2017 15:00:00 10,4 7,9 - - 28 15 57 31 SW 1006,1 10 0 0,0
26.02.2017 14:00:00 10,7 8,0 - - 35 19 55 30 SW 1007,1 20 0 0,0
26.02.2017 13:00:00 10,3 8,0 - - 24 13 52 28 SW 1007,9 10 0 0,0
26.02.2017 12:00:00 10,1 8,1 - - 22 12 48 26 SW 1008,7 10 0 0,0
26.02.2017 11:00:00 9,5 8,5 - - 22 12 - - SW 1009,2 10 0 0,0
26.02.2017 10:00:00 9,8 8,0 - - 22 12 - - WSW 1008,9 7 0 0,0
26.02.2017 09:00:00 10,2 7,4 8,4 7,9 13 7 - - WSW 1008,8 10 0 0,0
26.02.2017 08:00:00 10,0 9,0 - - 15 8 - - WSW 1008,8 10 0 0,0
26.02.2017 07:00:00 10,2 9,8 - - 15 8 - - WSW 1008,6 9 0 0,0
26.02.2017 06:00:00 10,3 9,8 - - 16 9 - - WSW 1008,7 19 0 0,0
26.02.2017 05:00:00 10,1 9,8 - - 16 9 - - WSW 1008,5 8 0 0,0
26.02.2017 04:00:00 10,2 9,7 - - 16 9 - - WSW 1008,6 20 0 0,0
26.02.2017 03:00:00 10,0 9,6 - - 22 12 - - SW 1008,7 19 0 0,4
26.02.2017 02:00:00 10,0 9,6 - - 22 12 48 26 SW 1009,3 3,5 0 0,2
26.02.2017 01:00:00 9,9 9,3 - - 28 15 46 25 SW 1009,6 17 0 0,2
26.02.2017 00:00:00 9,7 9,1 - - 28 15 48 26 SW 1009,9 5 - 0,4
25.02.2017 23:00:00 9,4 8,8 - - 26 14 46 25 SW 1010,1 10 0 0,8
25.02.2017 22:00:00 9,2 8,5 - - 26 14 46 25 SW 1010,8 6 0 0,8
25.02.2017 21:00:00 9,4 8,1 - - 28 15 46 25 SW 1011,2 4,6 0 0,0
25.02.2017 20:00:00 9,4 7,9 - - 26 14 - - SW 1011,4 10 0 0,4
25.02.2017 19:00:00 9,9 7,2 - - 24 13 46 25 SW 1011,5 10 0 0,0
25.02.2017 18:00:00 9,9 7,0 - - 28 15 50 27 SW 1012,0 10 0 0,0
25.02.2017 17:00:00 9,5 7,6 - - 28 15 54 29 SW 1012,0 10 0 0,2
25.02.2017 16:00:00 10,0 7,1 - - 26 14 - - SW 1012,2 10 0 0,0
25.02.2017 15:00:00 10,1 7,2 - - 18 10 46 25 SW 1012,8 18 0 0,0
25.02.2017 14:00:00 10,2 7,1 - - 28 15 - - SW 1013,3 10 0 0,0
25.02.2017 13:00:00 10,3 7,1 - - 26 14 - - SW 1013,7 10 0 0,0
25.02.2017 12:00:00 10,3 7,0 - - 24 13 - - SW 1014,5 19 0 0,0
25.02.2017 11:00:00 10,1 6,7 - - 26 14 - - SW 1015,0 10 0 0,0
25.02.2017 10:00:00 9,9 7,2 - - 24 13 48 26 SW 1015,0 10 0 0,0
25.02.2017 09:00:00 9,6 6,6 8,0 8,0 24 13 - - SW 1014,7 10 0 0,0
25.02.2017 08:00:00 9,1 6,4 - - 22 12 - - SW 1015,3 10 0 0,0
25.02.2017 07:00:00 8,5 7,0 - - 18 10 - - SW 1015,6 10 0 0,0
25.02.2017 06:00:00 8,6 6,4 - - 21 11 - - SW 1016,3 28 0 0,0
25.02.2017 05:00:00 8,4 7,0 - - 18 10 - - SW 1016,5 7 0 0,0
25.02.2017 04:00:00 8,8 6,0 - - 16 9 - - SW 1016,8 27 0 0,0
25.02.2017 03:00:00 8,6 5,8 - - 18 10 - - SW 1017,5 25 0 0,0
25.02.2017 02:00:00 8,5 6,2 - - 15 8 - - SW 1018,0 24 0 0,0
25.02.2017 01:00:00 8,3 6,2 - - 13 7 - - SW 1018,8 22 0 0,0
25.02.2017 00:00:00 7,4 5,6 - - 9 5 - - SW 1019,1 10 - 0,0
24.02.2017 23:00:00 6,7 5,1 - - 9 5 - - SSW 1019,4 10 0 0,0
24.02.2017 22:00:00 6,5 3,7 - - 8 4 - - S 1019,6 10 0 0,0
24.02.2017 21:00:00 5,5 1,8 - - 8 4 - - S 1019,9 10 0 0,0
24.02.2017 20:00:00 6,1 2,9 - - 8 4 - - WSW 1020,1 10 0 0,0
24.02.2017 19:00:00 3,5 -0,9 - - 4 2 - - S 1020,2 35 0 0,0
24.02.2017 18:00:00 6,3 -0,5 - - 4 2 - - W 1019,9 10 18 0,0
24.02.2017 17:00:00 8,3 -0,4 - - 13 7 - - WNW 1019,5 10 42 0,0
24.02.2017 16:00:00 9,6 0,2 - - 21 11 - - WNW 1019,1 10 54 0,0
24.02.2017 15:00:00 9,4 1,4 - - 15 8 - - N 1018,9 10 36 0,0
24.02.2017 14:00:00 10,0 0,8 - - 21 11 - - NW 1018,8 10 42 0,0
24.02.2017 13:00:00 9,2 0,1 - - 22 12 - - NW 1019,2 10 36 0,0
24.02.2017 12:00:00 8,9 0,8 - - 24 13 - - NW 1019,2 10 60 0,0
24.02.2017 11:00:00 8,1 1,8 - - 24 13 - - NW 1018,6 30 60 0,0
24.02.2017 10:00:00 6,9 2,2 - - 22 12 - - NW 1018,3 10 60 0,0
24.02.2017 09:00:00 5,5 2,1 8,5 8,0 18 10 - - WNW 1017,5 10 24 0,0
24.02.2017 08:00:00 3,9 1,5 - - 18 10 - - WNW 1016,8 29 0 0,0
24.02.2017 07:00:00 3,2 0,8 - - 16 9 - - WNW 1016,2 10 0 0,0
24.02.2017 06:00:00 3,7 0,9 - - 16 9 - - WNW 1015,5 27 0 0,0
24.02.2017 05:00:00 3,6 1,0 - - 16 9 - - WNW 1015,0 26 0 0,0
24.02.2017 04:00:00 2,5 0,5 - - 16 9 - - W 1013,9 27 0 0,0
24.02.2017 03:00:00 3,2 0,3 - - 15 8 - - WNW 1013,7 29 0 0,0
24.02.2017 02:00:00 3,1 -0,2 - - 11 6 - - W 1013,1 30 0 0,0
24.02.2017 01:00:00 4,7 1,0 - - 21 11 - - WNW 1012,1 22 0 0,0
24.02.2017 00:00:00 5,4 1,5 - - 22 12 - - WNW 1011,3 23 - 0,0
23.02.2017 23:00:00 5,4 1,7 - - 18 10 - - WNW 1010,4 25 0 0,0
23.02.2017 22:00:00 5,8 1,8 - - 24 13 - - WNW 1009,5 10 0 0,0
23.02.2017 21:00:00 5,9 1,9 - - 24 13 - - WNW 1008,4 10 0 0,0
23.02.2017 20:00:00 7,0 2,0 - - 22 12 63 34 WNW 1006,7 10 0 0,0
23.02.2017 19:00:00 7,5 1,4 - - 34 18 63 34 WNW 1005,3 10 0 0,0
23.02.2017 18:00:00 7,9 1,0 - - 39 21 76 41 WNW 1004,2 25 0 0,0
23.02.2017 17:00:00 8,8 0,8 - - 37 20 76 41 WNW 1002,9 10 18 0,0
23.02.2017 16:00:00 9,8 0,9 - - 46 25 78 42 WNW 1001,9 29 36 0,0
23.02.2017 15:00:00 10,4 2,1 - - 44 24 74 40 WNW 1000,7 10 0 0,0
23.02.2017 14:00:00 10,2 1,9 - - 55 30 83 45 WNW 999,9 10 6 0,0
23.02.2017 13:00:00 10,0 2,5 - - 50 27 80 43 WNW 999,5 21 6 0,0
23.02.2017 12:00:00 10,4 2,7 - - 48 26 87 47 W 999,0 10 18 0,0
23.02.2017 11:00:00 11,0 3,7 - - 54 29 78 42 W 998,2 10 60 0,0
23.02.2017 10:00:00 10,1 4,5 - - 48 26 70 38 W 997,6 10 24 0,0
23.02.2017 09:00:00 10,0 4,9 9,2 7,7 41 22 68 37 W 997,1 10 30 0,0
23.02.2017 08:00:00 10,0 7,4 - - 48 26 74 40 W 996,4 10 0 0,6
23.02.2017 07:00:00 10,7 8,7 - - 39 21 72 39 WSW 996,6 16 0 0,0
23.02.2017 06:00:00 10,8 8,7 - - 44 24 70 38 WSW 998,4 20 0 0,2
23.02.2017 05:00:00 10,2 9,3 - - 37 20 61 33 WSW 999,9 5 0 0,0
23.02.2017 04:00:00 10,4 8,9 - - 39 21 57 31 WSW 1001,8 20 0 0,0
23.02.2017 03:00:00 10,3 9,2 - - 34 18 57 31 WSW 1003,1 23 0 0,0
23.02.2017 02:00:00 10,2 9,5 - - 28 15 54 29 SW 1004,8 15 0 0,0
23.02.2017 01:00:00 10,1 9,5 - - 26 14 48 26 WSW 1006,4 8 0 0,0
23.02.2017 00:00:00 10,4 9,4 - - 31 17 55 30 WSW 1007,3 10 - 0,0
22.02.2017 23:00:00 10,4 9,4 - - 34 18 50 27 WSW 1007,9 10 0 0,0
22.02.2017 22:00:00 10,4 9,4 - - 29 16 46 25 WSW 1008,6 10 0 0,0
22.02.2017 21:00:00 10,4 9,4 - - 28 15 52 28 WSW 1008,9 10 0 0,0
22.02.2017 20:00:00 10,4 9,7 - - 22 12 - - WSW 1009,4 7 0 0,0
22.02.2017 19:00:00 10,6 9,9 - - 28 15 - - WSW 1009,7 7 0 0,0
22.02.2017 18:00:00 10,8 9,9 - - 26 14 - - WSW 1009,8 10 0 0,0
22.02.2017 17:00:00 11,0 10,1 - - 26 14 - - WSW 1010,0 2,5 0 0,0
22.02.2017 16:00:00 11,4 10,1 - - 29 16 - - WSW 1010,3 10 0 0,0
22.02.2017 15:00:00 11,7 10,3 - - 26 14 48 26 WSW 1010,5 10 0 0,0
22.02.2017 14:00:00 11,6 9,9 - - 31 17 50 27 WSW 1010,6 10 0 0,0

tt = temperature
td = dewpoint
tt -20cm = temperature -20cm
tt -100cm = temperature -100cm
ff = wind speed
fx = gusts
dd = wind direction
ppp = reduced air pressure
vv = visibility
sd = sunshine duration
rr = precipitation

Next stations